Location: Unspecified
(0.0000°N, 0.0000°E)
Time: 19:37:10
(UTC+00:00)

Amsat-Oscar-6 - Visible Passes

Search period start: 18 May 2026 00:00
Search period end: 28 May 2026 00:00
Orbit: 1448 x 1454 km, 102.0° (Epoch: 18 May)

Date Brightness Start Highest point End Pass type
(mag) Time Alt. Az. Time Alt. Az. Time Alt. Az.
18 May ? 18:21:20 10° SSE 18:29:23 52° ENE 18:37:22 10° N visible
18 May ? 20:15:57 10° SSW 20:21:42 21° WSW 20:27:30 10° WNW visible
19 May ? 19:14:20 10° S 19:22:34 64° WSW 19:30:48 10° NNW visible
20 May ? 18:15:29 10° SE 18:23:21 46° ENE 18:31:12 10° N visible
20 May ? 20:09:28 10° SSW 20:15:41 24° WSW 20:21:58 10° WNW visible
21 May ? 19:08:14 10° S 19:16:33 71° WSW 19:24:50 10° NNW visible
22 May ? 18:09:38 10° SE 18:17:20 41° ENE 18:24:59 10° N visible
22 May ? 20:03:03 10° SSW 20:09:42 27° WSW 20:16:21 10° NW visible
23 May ? 19:02:10 10° SSE 19:10:31 79° WSW 19:18:51 10° NNW visible
24 May ? 19:56:43 10° SSW 20:03:41 30° WSW 20:10:40 10° NW visible
25 May ? 18:56:07 10° SSE 19:04:30 87° WSW 19:12:51 10° NNW visible
26 May ? 05:33:15 10° ENE 05:38:42 19° ESE 05:44:08 10° SSE visible
26 May ? 19:50:24 10° SSW 19:57:40 34° WSW 20:04:57 10° NW visible
27 May ? 18:50:06 10° SSE 18:58:28 85° ENE 19:06:50 10° NNW visible
27 May ? 20:49:37 10° WSW 20:50:42 10° WSW 20:51:47 10° W visible
